Time,TemperatureF,DewpointF,PressureIn,WindDirection,WindDirectionDegrees,WindSpeedMPH,WindSpeedGustMPH,Humidity,HourlyPrecipIn,Conditions,Clouds,dailyrainin,SoftwareType,DateUTC
2013-04-23 00:02:00,47.1,38.5,30.34,ENE,61,3.0,5.0,72,0.00,,,0.00,Wunderground v.1.15,2013-04-23 07:02:00,
2013-04-23 00:07:00,46.8,38.2,30.34,ENE,61,3.0,5.0,72,0.00,,,0.00,Wunderground v.1.15,2013-04-23 07:07:00,
2013-04-23 00:17:00,47.6,37.9,30.35,NE,53,4.0,6.0,69,0.00,,,0.00,Wunderground v.1.15,2013-04-23 07:17:00,
2013-04-23 00:27:00,47.2,37.9,30.35,NE,53,2.0,4.0,70,0.00,,,0.00,Wunderground v.1.15,2013-04-23 07:27:00,
2013-04-23 00:37:00,46.9,38.0,30.35,NE,53,3.0,5.0,71,0.00,,,0.00,Wunderground v.1.15,2013-04-23 07:37:00,
2013-04-23 00:42:00,46.5,38.0,30.35,NE,53,3.0,3.0,72,0.00,,,0.00,Wunderground v.1.15,2013-04-23 07:42:00,
2013-04-23 00:52:00,46.3,38.1,30.35,NE,53,1.0,1.0,73,0.00,,,0.00,Wunderground v.1.15,2013-04-23 07:52:00,
2013-04-23 01:02:00,46.7,38.1,30.35,NE,53,2.0,4.0,72,0.00,,,0.00,Wunderground v.1.15,2013-04-23 08:02:00,
2013-04-23 01:12:00,46.7,37.8,30.35,NE,53,2.0,3.0,71,0.00,,,0.00,Wunderground v.1.15,2013-04-23 08:12:00,
2013-04-23 01:22:00,46.8,38.2,30.35,NE,53,1.0,3.0,72,0.00,,,0.00,Wunderground v.1.15,2013-04-23 08:22:00,
2013-04-23 01:27:00,46.7,38.1,30.35,NE,53,1.0,3.0,72,0.00,,,0.00,Wunderground v.1.15,2013-04-23 08:27:00,
2013-04-23 01:32:00,47.2,37.9,30.34,ENE,65,2.0,5.0,70,0.00,,,0.00,Wunderground v.1.15,2013-04-23 08:32:00,
2013-04-23 01:42:00,49.9,37.4,30.34,East,80,3.0,5.0,62,0.00,,,0.00,Wunderground v.1.15,2013-04-23 08:42:00,
2013-04-23 01:52:00,51.2,37.4,30.34,ENE,78,1.0,1.0,59,0.00,,,0.00,Wunderground v.1.15,2013-04-23 08:52:00,
2013-04-23 02:02:00,51.3,37.0,30.33,ENE,78,0.0,2.0,58,0.00,,,0.00,Wunderground v.1.15,2013-04-23 09:02:00,
2013-04-23 02:07:00,51.2,36.9,30.33,ENE,78,0.0,2.0,58,0.00,,,0.00,Wunderground v.1.15,2013-04-23 09:07:00,
2013-04-23 02:17:00,50.7,36.9,30.33,ENE,78,0.0,2.0,59,0.00,,,0.00,Wunderground v.1.15,2013-04-23 09:17:00,
2013-04-23 02:27:00,49.7,36.8,30.34,ENE,78,0.0,2.0,61,0.00,,,0.00,Wunderground v.1.15,2013-04-23 09:27:00,
2013-04-23 02:37:00,49.2,37.1,30.33,ENE,77,2.0,4.0,63,0.00,,,0.00,Wunderground v.1.15,2013-04-23 09:37:00,
2013-04-23 02:42:00,48.3,37.5,30.33,ENE,77,2.0,2.0,66,0.00,,,0.00,Wunderground v.1.15,2013-04-23 09:42:00,
2013-04-23 02:52:00,46.6,37.3,30.33,ENE,77,1.0,3.0,70,0.00,,,0.00,Wunderground v.1.15,2013-04-23 09:52:00,
2013-04-23 02:57:00,46.2,37.3,30.33,ENE,77,2.0,3.0,71,0.00,,,0.00,Wunderground v.1.15,2013-04-23 09:57:00,
2013-04-23 03:07:00,46.8,37.2,30.32,ENE,77,1.0,3.0,69,0.00,,,0.00,Wunderground v.1.15,2013-04-23 10:07:00,
2013-04-23 03:12:00,47.0,37.0,30.32,East,86,1.0,3.0,68,0.00,,,0.00,Wunderground v.1.15,2013-04-23 10:12:00,
2013-04-23 03:22:00,47.4,37.0,30.32,East,86,2.0,4.0,67,0.00,,,0.00,Wunderground v.1.15,2013-04-23 10:22:00,
2013-04-23 03:27:00,47.7,37.3,30.32,East,86,2.0,5.0,67,0.00,,,0.00,Wunderground v.1.15,2013-04-23 10:27:00,
2013-04-23 03:37:00,47.5,37.8,30.32,East,86,0.0,1.0,69,0.00,,,0.00,Wunderground v.1.15,2013-04-23 10:37:00,
2013-04-23 03:47:00,46.8,37.2,30.32,East,86,0.0,3.0,69,0.00,,,0.00,Wunderground v.1.15,2013-04-23 10:47:00,
2013-04-23 03:57:00,46.1,37.2,30.31,East,86,1.0,3.0,71,0.00,,,0.00,Wunderground v.1.15,2013-04-23 10:57:00,
2013-04-23 04:02:00,45.7,37.2,30.31,East,86,1.0,1.0,72,0.00,,,0.00,Wunderground v.1.15,2013-04-23 11:02:00,
2013-04-23 04:12:00,44.8,36.7,30.32,East,86,1.0,2.0,73,0.00,,,0.00,Wunderground v.1.15,2013-04-23 11:12:00,
2013-04-23 04:17:00,43.9,36.5,30.32,East,86,1.0,2.0,75,0.00,,,0.00,Wunderground v.1.15,2013-04-23 11:17:00,
2013-04-23 04:22:00,43.3,36.2,30.32,East,86,2.0,2.0,76,0.00,,,0.00,Wunderground v.1.15,2013-04-23 11:22:00,
2013-04-23 04:27:00,42.9,36.2,30.32,East,85,2.0,3.0,77,0.00,,,0.00,Wunderground v.1.15,2013-04-23 11:27:00,
2013-04-23 04:37:00,43.2,36.8,30.32,East,84,2.0,3.0,78,0.00,,,0.00,Wunderground v.1.15,2013-04-23 11:37:00,
2013-04-23 04:47:00,44.2,37.4,30.32,East,84,2.0,4.0,77,0.00,,,0.00,Wunderground v.1.15,2013-04-23 11:47:00,
2013-04-23 04:57:00,45.5,37.3,30.31,East,84,2.0,4.0,73,0.00,,,0.00,Wunderground v.1.15,2013-04-23 11:57:00,
2013-04-23 05:02:00,45.7,37.2,30.31,East,84,2.0,2.0,72,0.00,,,0.00,Wunderground v.1.15,2013-04-23 12:02:00,
2013-04-23 05:12:00,45.0,36.5,30.31,East,84,1.0,1.0,72,0.00,,,0.00,Wunderground v.1.15,2013-04-23 12:12:00,
2013-04-23 05:22:00,43.1,35.7,30.31,East,84,1.0,2.0,75,0.00,,,0.00,Wunderground v.1.15,2013-04-23 12:22:00,
2013-04-23 05:27:00,42.4,35.7,30.31,East,84,1.0,3.0,77,0.00,,,0.00,Wunderground v.1.15,2013-04-23 12:27:00,
2013-04-23 05:37:00,41.7,35.3,30.31,East,84,2.0,4.0,78,0.00,,,0.00,Wunderground v.1.15,2013-04-23 12:37:00,
2013-04-23 05:47:00,41.9,36.2,30.31,East,84,3.0,4.0,80,0.00,,,0.00,Wunderground v.1.15,2013-04-23 12:47:00,
2013-04-23 05:57:00,42.6,36.5,30.30,East,84,2.0,3.0,79,0.00,,,0.00,Wunderground v.1.15,2013-04-23 12:57:00,
2013-04-23 06:07:00,42.1,35.7,30.30,East,84,1.0,2.0,78,0.00,,,0.00,Wunderground v.1.15,2013-04-23 13:07:00,
2013-04-23 06:12:00,41.3,35.0,30.30,East,84,1.0,2.0,78,0.00,,,0.00,Wunderground v.1.15,2013-04-23 13:12:00,
2013-04-23 06:22:00,41.0,35.3,30.30,East,84,1.0,1.0,80,0.00,,,0.00,Wunderground v.1.15,2013-04-23 13:22:00,
2013-04-23 06:27:00,40.9,35.2,30.30,East,84,1.0,1.0,80,0.00,,,0.00,Wunderground v.1.15,2013-04-23 13:27:00,
2013-04-23 06:37:00,40.7,35.3,30.30,East,84,0.0,2.0,81,0.00,,,0.00,Wunderground v.1.15,2013-04-23 13:37:00,
2013-04-23 06:47:00,41.1,35.7,30.30,East,84,0.0,2.0,81,0.00,,,0.00,Wunderground v.1.15,2013-04-23 13:47:00,
2013-04-23 06:57:00,41.7,36.3,30.30,East,84,0.0,3.0,81,0.00,,,0.00,Wunderground v.1.15,2013-04-23 13:57:00,
2013-04-23 07:07:00,42.7,37.0,30.30,East,84,0.0,2.0,80,0.00,,,0.00,Wunderground v.1.15,2013-04-23 14:07:00,
2013-04-23 07:17:00,43.2,37.4,30.30,East,84,1.0,3.0,80,0.00,,,0.00,Wunderground v.1.15,2013-04-23 14:17:00,
2013-04-23 07:27:00,43.9,38.1,30.30,East,84,0.0,1.0,80,0.00,,,0.00,Wunderground v.1.15,2013-04-23 14:27:00,
2013-04-23 07:32:00,44.6,38.8,30.29,East,84,0.0,2.0,80,0.00,,,0.00,Wunderground v.1.15,2013-04-23 14:32:00,
2013-04-23 07:42:00,46.0,39.9,30.30,East,84,0.0,1.0,79,0.00,,,0.00,Wunderground v.1.15,2013-04-23 14:42:00,
2013-04-23 07:52:00,47.8,40.3,30.30,East,84,0.0,2.0,75,0.00,,,0.00,Wunderground v.1.15,2013-04-23 14:52:00,
2013-04-23 08:02:00,49.6,39.8,30.30,East,84,1.0,5.0,69,0.00,,,0.00,Wunderground v.1.15,2013-04-23 15:02:00,
2013-04-23 08:12:00,50.6,38.9,30.30,East,82,2.0,6.0,64,0.00,,,0.00,Wunderground v.1.15,2013-04-23 15:12:00,
2013-04-23 08:17:00,50.5,38.0,30.30,ENE,76,3.0,6.0,62,0.00,,,0.00,Wunderground v.1.15,2013-04-23 15:17:00,
2013-04-23 08:27:00,50.9,37.1,30.30,NE,42,4.0,8.0,59,0.00,,,0.00,Wunderground v.1.15,2013-04-23 15:27:00,
2013-04-23 08:37:00,51.7,37.4,30.30,NE,42,3.0,4.0,58,0.00,,,0.00,Wunderground v.1.15,2013-04-23 15:37:00,
2013-04-23 08:47:00,52.5,37.7,30.30,NE,42,2.0,5.0,57,0.00,,,0.00,Wunderground v.1.15,2013-04-23 15:47:00,
2013-04-23 08:57:00,50.8,37.0,30.30,NNW,340,3.0,7.0,59,0.00,,,0.00,Wunderground v.1.15,2013-04-23 15:57:00,
2013-04-23 09:02:00,50.1,37.6,30.30,NNW,333,5.0,7.0,62,0.00,,,0.00,Wunderground v.1.15,2013-04-23 16:02:00,
2013-04-23 09:12:00,49.9,36.6,30.30,NNW,333,4.0,4.0,60,0.00,,,0.00,Wunderground v.1.15,2013-04-23 16:12:00,
2013-04-23 09:17:00,50.1,36.7,30.30,NNW,333,4.0,5.0,60,0.00,,,0.00,Wunderground v.1.15,2013-04-23 16:17:00,
2013-04-23 09:27:00,50.4,39.5,30.29,NNW,333,3.0,5.0,66,0.00,,,0.00,Wunderground v.1.15,2013-04-23 16:27:00,
2013-04-23 09:32:00,50.7,39.4,30.29,NNW,333,3.0,5.0,65,0.00,,,0.00,Wunderground v.1.15,2013-04-23 16:32:00,
2013-04-23 09:42:00,51.2,38.2,30.29,NNW,333,2.0,4.0,61,0.00,,,0.00,Wunderground v.1.15,2013-04-23 16:42:00,
2013-04-23 09:52:00,50.9,39.9,30.30,NNW,330,4.0,6.0,66,0.00,,,0.00,Wunderground v.1.15,2013-04-23 16:52:00,
2013-04-23 09:57:00,50.2,39.3,30.29,NNW,329,4.0,6.0,66,0.00,,,0.00,Wunderground v.1.15,2013-04-23 16:57:00,
2013-04-23 10:02:00,50.0,39.8,30.29,NW,324,4.0,7.0,68,0.00,,,0.00,Wunderground v.1.15,2013-04-23 17:02:00,
2013-04-23 10:12:00,49.5,39.7,30.29,NW,315,5.0,8.0,69,0.00,,,0.00,Wunderground v.1.15,2013-04-23 17:12:00,
2013-04-23 10:22:00,50.0,41.7,30.29,NW,315,3.0,7.0,73,0.00,,,0.00,Wunderground v.1.15,2013-04-23 17:22:00,
2013-04-23 10:27:00,50.4,41.0,30.29,NW,315,3.0,7.0,70,0.00,,,0.00,Wunderground v.1.15,2013-04-23 17:27:00,
2013-04-23 10:37:00,51.2,42.1,30.29,NW,313,4.0,6.0,71,0.00,,,0.00,Wunderground v.1.15,2013-04-23 17:37:00,
2013-04-23 10:47:00,50.5,42.9,30.29,WNW,287,7.0,9.0,75,0.00,,,0.00,Wunderground v.1.15,2013-04-23 17:47:00,
2013-04-23 10:57:00,51.4,44.4,30.29,NNW,327,6.0,8.0,77,0.00,,,0.00,Wunderground v.1.15,2013-04-23 17:57:00,
2013-04-23 11:02:00,51.8,44.5,30.29,NW,317,5.0,5.0,76,0.00,,,0.00,Wunderground v.1.15,2013-04-23 18:02:00,
2013-04-23 11:12:00,52.4,44.7,30.29,NW,311,4.0,4.0,75,0.00,,,0.00,Wunderground v.1.15,2013-04-23 18:12:00,
2013-04-23 11:17:00,52.8,44.0,30.29,NNE,12,4.0,13.0,72,0.00,,,0.00,Wunderground v.1.15,2013-04-23 18:17:00,
2013-04-23 11:27:00,54.0,44.1,30.29,NW,315,3.0,13.0,69,0.00,,,0.00,Wunderground v.1.15,2013-04-23 18:27:00,
2013-04-23 11:37:00,54.0,43.3,30.29,WNW,300,4.0,11.0,67,0.00,,,0.00,Wunderground v.1.15,2013-04-23 18:37:00,
2013-04-23 11:42:00,53.7,43.4,30.29,WNW,300,6.0,13.0,68,0.00,,,0.00,Wunderground v.1.15,2013-04-23 18:42:00,
2013-04-23 11:52:00,53.2,43.7,30.29,NW,304,6.0,6.0,70,0.00,,,0.00,Wunderground v.1.15,2013-04-23 18:52:00,
2013-04-23 11:57:00,53.6,44.0,30.29,WNW,299,6.0,10.0,70,0.00,,,0.00,Wunderground v.1.15,2013-04-23 18:57:00,
2013-04-23 12:07:00,54.4,42.9,30.28,NNE,14,6.0,15.0,65,0.00,,,0.00,Wunderground v.1.15,2013-04-23 19:07:00,
2013-04-23 12:17:00,54.5,42.2,30.28,North,5,6.0,14.0,63,0.00,,,0.00,Wunderground v.1.15,2013-04-23 19:17:00,
2013-04-23 12:27:00,54.7,42.8,30.28,North,355,9.0,18.0,64,0.00,,,0.00,Wunderground v.1.15,2013-04-23 19:27:00,
2013-04-23 12:32:00,54.9,42.5,30.28,North,355,8.0,18.0,63,0.00,,,0.00,Wunderground v.1.15,2013-04-23 19:32:00,
2013-04-23 12:42:00,54.9,43.7,30.27,North,355,8.0,8.0,66,0.00,,,0.00,Wunderground v.1.15,2013-04-23 19:42:00,
2013-04-23 12:52:00,55.3,43.3,30.27,North,355,7.0,7.0,64,0.00,,,0.00,Wunderground v.1.15,2013-04-23 19:52:00,
2013-04-23 13:02:00,55.6,44.4,30.27,NNW,338,6.0,6.0,66,0.00,,,0.00,Wunderground v.1.15,2013-04-23 20:02:00,
2013-04-23 13:07:00,56.3,44.3,30.27,WNW,302,5.0,9.0,64,0.00,,,0.00,Wunderground v.1.15,2013-04-23 20:07:00,
2013-04-23 13:17:00,55.9,41.8,30.26,NNW,332,8.0,19.0,59,0.00,,,0.00,Wunderground v.1.15,2013-04-23 20:17:00,
2013-04-23 13:22:00,55.7,40.7,30.27,NE,34,9.0,19.0,57,0.00,,,0.00,Wunderground v.1.15,2013-04-23 20:22:00,
2013-04-23 13:32:00,54.8,41.6,30.26,North,9,10.0,10.0,61,0.00,,,0.00,Wunderground v.1.15,2013-04-23 20:32:00,
2013-04-23 13:42:00,54.6,43.5,30.26,NNE,13,10.0,10.0,66,0.00,,,0.00,Wunderground v.1.15,2013-04-23 20:42:00,
2013-04-23 13:52:00,54.9,44.5,30.26,NW,325,8.0,8.0,68,0.00,,,0.00,Wunderground v.1.15,2013-04-23 20:52:00,
2013-04-23 13:57:00,54.9,44.1,30.26,North,355,8.0,13.0,67,0.00,,,0.00,Wunderground v.1.15,2013-04-23 20:57:00,
2013-04-23 14:07:00,55.7,43.7,30.26,North,5,7.0,15.0,64,0.00,,,0.00,Wunderground v.1.15,2013-04-23 21:07:00,
2013-04-23 14:17:00,56.1,43.3,30.25,NNE,26,9.0,18.0,62,0.00,,,0.00,Wunderground v.1.15,2013-04-23 21:17:00,
2013-04-23 14:22:00,56.4,43.1,30.25,NNE,31,10.0,19.0,61,0.00,,,0.00,Wunderground v.1.15,2013-04-23 21:22:00,
2013-04-23 14:32:00,56.3,42.1,30.25,NNE,17,10.0,10.0,59,0.00,,,0.00,Wunderground v.1.15,2013-04-23 21:32:00,
2013-04-23 14:42:00,56.9,42.3,30.25,NNE,17,9.0,19.0,58,0.00,,,0.00,Wunderground v.1.15,2013-04-23 21:42:00,
2013-04-23 14:47:00,57.1,41.1,30.25,NNE,19,10.0,21.0,55,0.00,,,0.00,Wunderground v.1.15,2013-04-23 21:47:00,
2013-04-23 14:57:00,56.9,40.9,30.25,NNE,15,12.0,14.0,55,0.00,,,0.00,Wunderground v.1.15,2013-04-23 21:57:00,
2013-04-23 15:07:00,56.6,42.4,30.25,North,360,11.0,21.0,59,0.00,,,0.00,Wunderground v.1.15,2013-04-23 22:07:00,
2013-04-23 15:17:00,56.3,43.0,30.25,NNE,19,9.0,18.0,61,0.00,,,0.00,Wunderground v.1.15,2013-04-23 22:17:00,
2013-04-23 15:22:00,56.0,43.2,30.24,NNE,22,9.0,22.0,62,0.00,,,0.00,Wunderground v.1.15,2013-04-23 22:22:00,
2013-04-23 15:32:00,56.1,43.3,30.24,North,11,10.0,10.0,62,0.00,,,0.00,Wunderground v.1.15,2013-04-23 22:32:00,
2013-04-23 15:42:00,55.5,43.5,30.23,NNE,12,11.0,11.0,64,0.00,,,0.00,Wunderground v.1.15,2013-04-23 22:42:00,
2013-04-23 15:52:00,55.1,43.9,30.23,North,355,12.0,22.0,66,0.00,,,0.00,Wunderground v.1.15,2013-04-23 22:52:00,
2013-04-23 15:57:00,55.5,43.1,30.22,NNE,23,12.0,22.0,63,0.00,,,0.00,Wunderground v.1.15,2013-04-23 22:57:00,
2013-04-23 16:07:00,55.7,42.9,30.22,North,5,12.0,21.0,62,0.00,,,0.00,Wunderground v.1.15,2013-04-23 23:07:00,
2013-04-23 16:12:00,55.7,40.2,30.22,NNE,17,13.0,13.0,56,0.00,,,0.00,Wunderground v.1.15,2013-04-23 23:12:00,
2013-04-23 16:22:00,55.5,41.0,30.21,NNE,15,14.0,14.0,58,0.00,,,0.00,Wunderground v.1.15,2013-04-23 23:22:00,
2013-04-23 16:32:00,55.8,39.4,30.21,NNE,15,14.0,22.0,54,0.00,,,0.00,Wunderground v.1.15,2013-04-23 23:32:00,
2013-04-23 16:37:00,55.5,39.6,30.20,West,275,14.0,24.0,55,0.00,,,0.00,Wunderground v.1.15,2013-04-23 23:37:00,
2013-04-23 16:47:00,54.9,39.9,30.20,NE,34,14.0,28.0,57,0.00,,,0.00,Wunderground v.1.15,2013-04-23 23:47:00,
2013-04-23 16:52:00,54.3,41.6,30.20,NNW,344,15.0,15.0,62,0.00,,,0.00,Wunderground v.1.15,2013-04-23 23:52:00,
2013-04-23 17:02:00,53.3,42.6,30.21,NNE,13,16.0,26.0,67,0.00,,,0.00,Wunderground v.1.15,2013-04-24 00:02:00,
2013-04-23 17:12:00,52.8,42.9,30.20,NNW,334,15.0,30.0,69,0.00,,,0.00,Wunderground v.1.15,2013-04-24 00:12:00,
2013-04-23 17:17:00,52.6,43.1,30.20,North,355,16.0,30.0,70,0.00,,,0.01,Wunderground v.1.15,2013-04-24 00:17:00,
2013-04-23 17:22:00,52.5,43.4,30.19,NNW,336,17.0,17.0,71,0.00,,,0.01,Wunderground v.1.15,2013-04-24 00:22:00,
2013-04-23 17:27:00,52.4,43.3,30.19,NNE,24,16.0,27.0,71,0.00,,,0.01,Wunderground v.1.15,2013-04-24 00:27:00,
2013-04-23 17:37:00,52.5,43.0,30.19,NNE,14,17.0,30.0,70,0.00,,,0.01,Wunderground v.1.15,2013-04-24 00:37:00,
2013-04-23 17:42:00,52.7,43.6,30.20,NNE,15,17.0,17.0,71,0.00,,,0.01,Wunderground v.1.15,2013-04-24 00:42:00,
2013-04-23 17:52:00,52.3,44.6,30.19,North,355,17.0,17.0,75,0.00,,,0.01,Wunderground v.1.15,2013-04-24 00:52:00,
2013-04-23 18:02:00,51.8,45.5,30.20,North,360,17.0,17.0,79,0.00,,,0.01,Wunderground v.1.15,2013-04-24 01:02:00,
2013-04-23 18:12:00,51.3,46.3,30.20,NNE,29,17.0,17.0,83,0.00,,,0.01,Wunderground v.1.15,2013-04-24 01:12:00,
2013-04-23 18:17:00,51.2,46.2,30.20,North,5,16.0,23.0,83,0.00,,,0.01,Wunderground v.1.15,2013-04-24 01:17:00,
2013-04-23 18:27:00,51.4,46.4,30.20,North,5,13.0,24.0,83,0.00,,,0.01,Wunderground v.1.15,2013-04-24 01:27:00,
2013-04-23 18:32:00,51.6,46.3,30.20,NNE,20,11.0,11.0,82,0.00,,,0.01,Wunderground v.1.15,2013-04-24 01:32:00,
2013-04-23 18:42:00,51.8,45.8,30.19,NNE,21,11.0,18.0,80,0.00,,,0.01,Wunderground v.1.15,2013-04-24 01:42:00,
2013-04-23 18:52:00,51.6,46.0,30.19,NNW,344,12.0,12.0,81,0.00,,,0.01,Wunderground v.1.15,2013-04-24 01:52:00,
2013-04-23 19:02:00,51.0,46.0,30.19,NNW,348,12.0,12.0,83,0.00,,,0.01,Wunderground v.1.15,2013-04-24 02:02:00,
2013-04-23 19:12:00,50.6,45.6,30.18,North,9,12.0,12.0,83,0.00,,,0.01,Wunderground v.1.15,2013-04-24 02:12:00,
2013-04-23 19:22:00,50.4,45.4,30.18,NE,38,12.0,18.0,83,0.00,,,0.01,Wunderground v.1.15,2013-04-24 02:22:00,
2013-04-23 19:32:00,50.1,45.5,30.19,NNE,19,11.0,11.0,84,0.00,,,0.01,Wunderground v.1.15,2013-04-24 02:32:00,
2013-04-23 19:41:00,49.9,45.6,30.18,North,350,11.0,16.0,85,0.00,,,0.01,Wunderground v.1.15,2013-04-24 02:41:00,
2013-04-23 19:52:00,49.5,45.5,30.19,North,11,10.0,10.0,86,0.00,,,0.01,Wunderground v.1.15,2013-04-24 02:52:00,
2013-04-23 20:02:00,49.3,45.3,30.19,NNE,26,10.0,10.0,86,0.00,,,0.01,Wunderground v.1.15,2013-04-24 03:02:00,
2013-04-23 20:07:00,49.1,45.1,30.19,North,355,10.0,21.0,86,0.00,,,0.01,Wunderground v.1.15,2013-04-24 03:07:00,
2013-04-23 20:12:00,49.0,45.0,30.19,North,5,8.0,8.0,86,0.00,,,0.01,Wunderground v.1.15,2013-04-24 03:12:00,
2013-04-23 20:22:00,48.8,44.8,30.19,NNW,346,6.0,11.0,86,0.00,,,0.01,Wunderground v.1.15,2013-04-24 03:22:00,
2013-04-23 20:32:00,48.7,44.4,30.19,NNE,19,7.0,16.0,85,0.00,,,0.01,Wunderground v.1.15,2013-04-24 03:32:00,
2013-04-23 20:42:00,48.6,44.6,30.20,North,350,8.0,19.0,86,0.00,,,0.01,Wunderground v.1.15,2013-04-24 03:42:00,
2013-04-23 20:47:00,48.5,44.5,30.20,NNW,330,8.0,19.0,86,0.00,,,0.01,Wunderground v.1.15,2013-04-24 03:47:00,
2013-04-23 20:57:00,48.4,44.7,30.20,North,5,7.0,11.0,87,0.00,,,0.01,Wunderground v.1.15,2013-04-24 03:57:00,
2013-04-23 21:02:00,48.3,44.6,30.20,North,360,6.0,6.0,87,0.00,,,0.01,Wunderground v.1.15,2013-04-24 04:02:00,
2013-04-23 21:07:00,48.3,44.3,30.21,NNE,29,7.0,7.0,86,0.00,,,0.01,Wunderground v.1.15,2013-04-24 04:07:00,
2013-04-23 21:17:00,48.3,44.3,30.21,North,5,6.0,8.0,86,0.00,,,0.01,Wunderground v.1.15,2013-04-24 04:17:00,
2013-04-23 21:22:00,48.3,44.3,30.21,North,11,6.0,12.0,86,0.00,,,0.01,Wunderground v.1.15,2013-04-24 04:22:00,
2013-04-23 21:32:00,48.3,44.0,30.21,North,360,5.0,5.0,85,0.00,,,0.01,Wunderground v.1.15,2013-04-24 04:32:00,
2013-04-23 21:42:00,48.2,43.9,30.22,North,355,3.0,3.0,85,0.00,,,0.01,Wunderground v.1.15,2013-04-24 04:42:00,
2013-04-23 21:52:00,48.1,44.1,30.22,North,5,3.0,8.0,86,0.00,,,0.01,Wunderground v.1.15,2013-04-24 04:52:00,
2013-04-23 22:02:00,47.9,43.9,30.22,NNE,26,3.0,7.0,86,0.00,,,0.01,Wunderground v.1.15,2013-04-24 05:02:00,
2013-04-23 22:12:00,47.8,43.8,30.22,NNE,27,3.0,6.0,86,0.00,,,0.01,Wunderground v.1.15,2013-04-24 05:12:00,
2013-04-23 22:22:00,47.6,43.6,30.22,NNE,27,2.0,2.0,86,0.00,,,0.01,Wunderground v.1.15,2013-04-24 05:22:00,
2013-04-23 22:27:00,47.6,43.6,30.22,NNE,27,0.0,2.0,86,0.00,,,0.01,Wunderground v.1.15,2013-04-24 05:27:00,
2013-04-23 22:37:00,47.4,43.4,30.22,NNE,27,1.0,3.0,86,0.00,,,0.01,Wunderground v.1.15,2013-04-24 05:37:00,
2013-04-23 22:47:00,47.3,43.3,30.22,NNE,27,1.0,4.0,86,0.00,,,0.01,Wunderground v.1.15,2013-04-24 05:47:00,
2013-04-23 22:57:00,47.2,43.2,30.22,NNE,27,2.0,6.0,86,0.00,,,0.01,Wunderground v.1.15,2013-04-24 05:57:00,
2013-04-23 23:02:00,47.0,43.3,30.21,NNE,27,2.0,2.0,87,0.00,,,0.01,Wunderground v.1.15,2013-04-24 06:02:00,
2013-04-23 23:12:00,46.6,42.9,30.21,NE,37,1.0,1.0,87,0.00,,,0.01,Wunderground v.1.15,2013-04-24 06:12:00,
2013-04-23 23:17:00,46.5,42.8,30.22,NE,37,1.0,3.0,87,0.00,,,0.01,Wunderground v.1.15,2013-04-24 06:17:00,
2013-04-23 23:22:00,46.3,42.6,30.22,NE,37,0.0,1.0,87,0.00,,,0.01,Wunderground v.1.15,2013-04-24 06:22:00,
2013-04-23 23:32:00,45.6,42.0,30.22,NE,37,1.0,3.0,87,0.00,,,0.01,Wunderground v.1.15,2013-04-24 06:32:00,
2013-04-23 23:42:00,44.9,41.3,30.22,NE,37,1.0,2.0,87,0.00,,,0.01,Wunderground v.1.15,2013-04-24 06:42:00,
2013-04-23 23:52:00,44.4,41.1,30.22,NE,37,1.0,1.0,88,0.00,,,0.01,Wunderground v.1.15,2013-04-24 06:52:00,